User: anonymous   Login
Location: Petruro
(41.0333°N, 14.7833°E)
Time: 09:48:30
(UTC+00:00)
Language:

SL-08 R/B - Orbit

View from above orbital plane
View from above orbital plane
View from above satellite
View from above satellite

Ground track
Ground track

The orbit data is extracted from the following two-line orbital elements,

1 27561U 02054C   21264.68766913  .00000075  00000-0  28052-4 0  9996
2 27561  98.4753  62.9146 0047037  54.1049 306.4501 14.55923934998809
Epoch (UTC): 21 September 2021 16:30:14
Eccentricity: 0.0047037
inclination: 98.4753°
perigee height: 673 km
apogee height: 739 km
right ascension of ascending node: 62.9146°
argument of perigee: 54.1049°
revolutions per day: 14.55923934
mean anomaly at epoch: 306.4501°
orbit number at epoch: 99880

The dashed part of the orbit path shows where the satellite is in the earth's shadow,  

DLR